H1 CPF 2 NER 2025 11 13 9 317 01 glonass146 H2 2216101 9146 54377 2025 11 13 0 0 0 2025 11 16 23 45 0 900 1 1 0 0 0 1 H9 10 0 60992 0.00000 0 -13760787.245 -3129256.937 21263315.941 10 0 60992 900.00000 0 -11514094.568 -4602928.183 22302304.719 10 0 60992 1800.00000 0 -9301693.687 -6300061.921 22908668.184 10 0 60992 2700.00000 0 -7184113.503 -8186474.740 23070516.355 10 0 60992 3600.00000 0 -5215291.140 -10217572.295 22784567.157 10 0 60992 4500.00000 0 -3440499.255 -12340021.575 22056220.645 10 0 60992 5400.00000 0 -1894646.885 -14493805.357 20899466.406 10 0 60992 6300.00000 0 -601024.396 -16614574.819 19336624.892 10 0 60992 7200.00000 0 429455.164 -18636203.404 17397926.563 10 0 60992 8100.00000 0 1198486.639 -20493436.130 15120935.777 10 0 60992 9000.00000 0 1720065.618 -22124523.921 12549829.498 10 0 60992 9900.00000 0 2019656.535 -23473732.509 9734543.959 10 0 60992 10800.00000 0 2132871.287 -24493620.195 6729805.300 10 0 60992 11700.00000 0 2103714.544 -25146987.964 3594062.832 10 0 60992 12600.00000 0 1982470.614 -25408418.939 388346.005 10 0 60992 13500.00000 0 1823322.295 -25265341.396 -2824932.014 10 0 60992 14400.00000 0 1681803.830 -24718569.630 -5983199.870 10 0 60992 15300.00000 0 1612197.372 -23782299.306 -9024957.512 10 0 60992 16200.00000 0 1664984.900 -22483557.175 -11890984.427 10 0 60992 17100.00000 0 1884465.110 -20861128.411 -14525501.847 10 0 60992 18000.00000 0 2306637.635 -18964007.114 -16877265.265 10 0 60992 18900.00000 0 2957445.349 -16849435.749 -18900565.285 10 0 60992 19800.00000 0 3851449.979 -14580616.563 -20556117.045 10 0 60992 20700.00000 0 4990997.569 -12224191.652 -21811820.924 10 0 60992 21600.00000 0 6365909.383 -9847597.670 -22643380.235 10 0 60992 22500.00000 0 7953711.447 -7516405.965 -23034764.596 10 0 60992 23400.00000 0 9720393.165 -5291759.033 -22978510.898 10 0 60992 24300.00000 0 11621663.213 -3228009.564 -22475857.022 10 0 60992 25200.00000 0 13604650.176 -1370659.419 -21536706.652 10 0 60992 26100.00000 0 15609976.878 245317.024 -20179426.721 10 0 60992 27000.00000 0 17574121.906 1596697.078 -18430482.095 10 0 60992 27900.00000 0 19431970.014 2672732.465 -16323915.004 10 0 60992 28800.00000 0 21119445.282 3475342.443 -13900679.628 10 0 60992 29700.00000 0 22576117.580 4018771.348 -11207844.797 10 0 60992 30600.00000 0 23747674.024 4328726.844 -8297680.219 10 0 60992 31500.00000 0 24588152.697 4441036.637 -5226643.835 10 0 60992 32400.00000 0 25061845.844 4399881.513 -2054289.722 10 0 60992 33300.00000 0 25144793.455 4255679.992 1157882.530 10 0 60992 34200.00000 0 24825805.154 4062714.419 4347614.880 10 0 60992 35100.00000 0 24106967.940 3876598.909 7453091.649 10 0 60992 36000.00000 0 23003618.618 3751696.079 10414131.147 10 0 60992 36900.00000 0 21543782.017 3738591.554 13173345.390 10 0 60992 37800.00000 0 19767098.152 3881732.707 15677245.923 10 0 60992 38700.00000 0 17723282.613 4217331.190 17877274.856 10 0 60992 39600.00000 0 15470183.713 4771617.847 19730741.682 10 0 60992 40500.00000 0 13071516.488 5559523.889 21201648.292 10 0 60992 41400.00000 0 10594366.872 6583844.621 22261386.695 10 0 60992 42300.00000 0 8106568.869 7834921.968 22889296.236 10 0 60992 43200.00000 0 5674062.718 9290860.655 23073069.627 10 0 60992 44100.00000 0 3358342.866 10918270.746 22808999.796 10 0 60992 45000.00000 0 1214101.066 12673507.403 22102062.255 10 0 60992 45900.00000 0 -712838.048 14504357.897 20965830.686 10 0 60992 46800.00000 0 -2387203.437 16352107.161 19422226.338 10 0 60992 47700.00000 0 -3785516.115 18153896.889 17501104.965 10 0 60992 48600.00000 0 -4896828.054 19845280.546 15239688.086 10 0 60992 49500.00000 0 -5722930.699 21362867.833 12681848.495 10 0 60992 50400.00000 0 -6278024.428 22646947.736 9877262.992 10 0 60992 51300.00000 0 -6587863.107 23643979.609 6880448.218 10 0 60992 52200.00000 0 -6688410.145 24308846.741 3749698.143 10 0 60992 53100.00000 0 -6624063.441 24606776.479 545944.183 10 0 60992 54000.00000 0 -6445525.172 24514844.787 -2668439.246 10 0 60992 54900.00000 0 -6207407.782 24023000.702 -5830859.456 10 0 60992 55800.00000 0 -5965678.972 23134566.481 -8879735.405 10 0 60992 56700.00000 0 -5775055.484 21866191.691 -11755707.544 10 0 60992 57600.00000 0 -5686457.630 20247262.819 -14402802.823 10 0 60992 58500.00000 0 -5744633.830 18318793.265 -16769531.095 10 0 60992 59400.00000 0 -5986056.897 16131840.648 -18809890.882 10 0 60992 60300.00000 0 -6437181.954 13745518.360 -20484264.605 10 0 60992 61200.00000 0 -7113140.207 11224685.218 -21760185.893 10 0 60992 62100.00000 0 -8016923.960 8637410.361 -22612964.484 10 0 60992 63000.00000 0 -9139097.303 6052319.515 -23026157.313 10 0 60992 63900.00000 0 -10458044.532 3535933.283 -22991877.509 10 0 60992 64800.00000 0 -11940745.684 1150107.901 -22510936.312 10 0 60992 65700.00000 0 -13544046.476 -1050315.874 -21592816.138 10 0 60992 66600.00000 0 -15216369.285 -3019559.154 -20255476.138 10 0 60992 67500.00000 0 -16899793.488 -4722563.036 -18524994.727 10 0 60992 68400.00000 0 -18532418.196 -6136191.322 -16435056.473 10 0 60992 69300.00000 0 -20050908.728 -7249929.736 -14026293.565 10 0 60992 70200.00000 0 -21393120.594 -8066054.551 -11345494.730 10 0 60992 71100.00000 0 -22500691.560 -8599265.654 -8444696.855 10 0 60992 72000.00000 0 -23321493.741 -8875801.215 -5380176.825 10 0 60992 72900.00000 0 -23811843.437 -8932072.711 -2211362.889 10 0 60992 73800.00000 0 -23938376.553 -8812878.917 1000313.561 10 0 60992 74700.00000 0 -23679511.301 -8569274.894 4192603.799 10 0 60992 75600.00000 0 -23026437.049 -8256186.323 7303642.432 10 0 60992 76500.00000 0 -21983587.910 -7929869.984 10273140.033 10 0 60992 77400.00000 0 -20568580.968 -7645327.508 13043544.957 10 0 60992 78300.00000 0 -18811621.320 -7453781.334 15561152.327 10 0 60992 79200.00000 0 -16754398.056 -7400319.148 17777139.227 10 0 60992 80100.00000 0 -14448516.397 -7521805.976 19648506.584 10 0 60992 81000.00000 0 -11953530.260 -7845151.946 21138910.078 10 0 60992 81900.00000 0 -9334655.889 -8386008.986 22219364.470 10 0 60992 82800.00000 0 -6660260.469 -9147951.956 22868808.025 10 0 60992 83700.00000 0 -3999228.710 -10122179.639 23074516.218 10 0 60992 84600.00000 0 -1418315.669 -11287749.565 22832356.591 10 0 60992 85500.00000 0 1020405.327 -12612338.400 22146879.316 10 0 60993 0.00000 0 3261894.230 -14053497.665 21031241.130 10 0 60993 900.00000 0 5260199.323 -15560354.644 19506962.392 10 0 60993 1800.00000 0 6980127.643 -17075686.772 17603522.461 10 0 60993 2700.00000 0 8398465.292 -18538286.236 15357797.987 10 0 60993 3600.00000 0 9504693.748 -19885514.420 12813355.310 10 0 60993 4500.00000 0 10301173.459 -21055939.869 10019609.294 10 0 60993 5400.00000 0 10802786.950 -21991948.435 7030864.392 10 0 60993 6300.00000 0 11036056.766 -22642215.028 3905256.418 10 0 60993 7200.00000 0 11037775.947 -22963931.713 703615.862 10 0 60993 8100.00000 0 10853209.656 -22924696.917 -2511724.496 10 0 60993 9000.00000 0 10533945.077 -22503984.679 -5678153.453 10 0 60993 9900.00000 0 10135481.866 -21694130.684 -8734011.673 10 0 60993 10800.00000 0 9714666.659 -20500792.443 -11619803.119 10 0 60993 11700.00000 0 9327081.773 -18942863.472 -14279362.813 10 0 60993 12600.00000 0 9024500.105 -17051844.698 -16660957.106 10 0 60993 13500.00000 0 8852515.136 -14870699.440 -18718294.310 10 0 60993 14400.00000 0 8848447.208 -12452240.195 -20411425.698 10 0 60993 15300.00000 0 9039615.094 -9857115.185 -21707519.364 10 0 60993 16200.00000 0 9442046.046 -7151479.211 -22581492.312 10 0 60993 17100.00000 0 10059678.633 -4404446.303 -23016489.221 10 0 60993 18000.00000 0 10884091.608 -1685430.384 -23004199.490 10 0 60993 18900.00000 0 11894769.795 938515.626 -22545007.381 10 0 60993 19800.00000 0 13059895.331 3405252.271 -21647973.348 10 0 60993 20700.00000 0 14337630.617 5659892.475 -20330647.744 10 0 60993 21600.00000 0 15677838.825 7656831.075 -18618721.225 10 0 60993 22500.00000 0 17024169.633 9361382.263 -16545519.085 10 0 60993 23400.00000 0 18316422.696 10750958.647 -14151349.612 10 0 60993 24300.00000 0 19493089.876 11815744.802 -11482719.211 10 0 60993 25200.00000 0 20493969.853 12558839.217 -8591429.434 10 0 60993 26100.00000 0 21262745.746 12995860.596 -5533573.316 10 0 60993 27000.00000 0 21749417.925 13154036.714 -2368450.265 10 0 60993 27900.00000 0 21912490.227 13070815.495 842579.692 10 0 60993 28800.00000 0 21720818.056 12792057.744 4037280.343 10 0 60993 29700.00000 0 21155040.883 12369888.331 7153739.731 10 0 60993 30600.00000 0 20208538.996 11860296.703 10131563.685 10 0 60993 31500.00000 0 18887874.040 11320587.920 12913039.675 10 0 60993 32400.00000 0 17212694.388 10806791.519 15444248.889 10 0 60993 33300.00000 0 15215108.417 10371137.124 17676105.553 10 0 60993 34200.00000 0 12938550.864 10059702.863 19565303.865 10 0 60993 35100.00000 0 10436188.258 9910335.384 21075154.781 10 0 60993 36000.00000 0 7768928.411 9950928.974 22176296.925 10 0 60993 36900.00000 0 5003115.296 10198136.374 22847268.198 10 0 60993 37800.00000 0 2208003.585 10656566.037 23074927.132 10 0 60993 38700.00000 0 -546883.714 11318500.430 22854715.713 10 0 60993 39600.00000 0 -3194406.053 12164148.392 22190758.113 10 0 60993 40500.00000 0 -5672355.563 13162422.362 21095792.717 10 0 60993 41400.00000 0 -7925801.515 14272209.324 19590937.748 10 0 60993 42300.00000 0 -9909131.991 15444083.517 17705293.893 10 0 60993 43200.00000 0 -11587707.986 16622390.170 15475390.436 10 0 60993 44100.00000 0 -12939061.009 17747613.517 12944484.482 10 0 60993 45000.00000 0 -13953584.068 18758929.821 10161725.975 10 0 60993 45900.00000 0 -14634687.095 19596837.814 7181204.118 10 0 60993 46800.00000 0 -14998410.418 20205755.063 4060893.487 10 0 60993 47700.00000 0 -15072512.863 20536469.700 861520.621 10 0 60993 48600.00000 0 -14895073.554 20548342.720 -2354626.256 10 0 60993 49500.00000 0 -14512667.346 20211166.355 -5524920.220 10 0 60993 50400.00000 0 -13978192.177 19506598.584 -8587626.256 10 0 60993 51300.00000 0 -13348441.620 18429111.880 -11483114.236 10 0 60993 52200.00000 0 -12681526.798 16986415.102 -14155029.401 10 0 60993 53100.00000 0 -12034258.152 15199329.995 -16551396.448 10 0 60993 54000.00000 0 -11459599.026 13101127.048 -18625635.021 10 0 60993 54900.00000 0 -11004299.661 10736348.459 -20337466.470 10 0 60993 55800.00000 0 -10706812.095 8159167.605 -21653694.262 10 0 60993 56700.00000 0 -10595574.139 5431353.843 -22548843.270 10 0 60993 57600.00000 0 -10687734.585 2619927.743 -23005646.232 10 0 60993 58500.00000 0 -10988372.834 -205395.437 -23015368.817 10 0 60993 59400.00000 0 -11490245.095 -2974867.808 -22577967.996 10 0 60993 60300.00000 0 -12174067.003 -5621366.267 -21702081.612 10 0 60993 61200.00000 0 -13009319.993 -8082935.626 -20404850.218 10 0 60993 62100.00000 0 -13955546.843 -10305112.937 -18711575.360 10 0 60993 63000.00000 0 -14964081.452 -12242937.882 -16655221.370 10 0 60993 63900.00000 0 -15980139.831 -13862567.248 -14275770.663 10 0 60993 64800.00000 0 -16945184.327 -15142428.095 -11619445.111 10 0 60993 65700.00000 0 -17799461.793 -16073863.444 -8737808.527 10 0 60993 66600.00000 0 -18484609.139 -16661245.311 -5686767.562 10 0 60993 67500.00000 0 -18946217.001 -16921552.097 -2525490.162 10 0 60993 68400.00000 0 -19136243.957 -16883429.515 684737.705 10 0 60993 69300.00000 0 -19015179.975 -16585775.655 3881695.088 10 0 60993 70200.00000 0 -18553868.254 -16075910.515 7003426.245 10 0 60993 71100.00000 0 -17734908.767 -15407407.513 9989435.051 10 0 60993 72000.00000 0 -16553584.310 -14637678.431 12781850.817 10 0 60993 72900.00000 0 -15018269.594 -13825413.399 15326543.420 10 0 60993 73800.00000 0 -13150305.400 -13027983.356 17574166.650 10 0 60993 74700.00000 0 -10983341.909 -12298913.939 19481110.109 10 0 60993 75600.00000 0 -8562177.235 -11685536.601 21010341.798 10 0 60993 76500.00000 0 -5941137.971 -11226915.403 22132125.558 10 0 60993 77400.00000 0 -3182067.490 -10952136.409 22824599.825 10 0 60993 78300.00000 0 -352003.885 -10879031.683 23074206.617 10 0 60993 79200.00000 0 2479357.684 -11013391.805 22875962.348 10 0 60993 80100.00000 0 5242314.346 -11348700.725 22233564.751 10 0 60993 81000.00000 0 7869807.835 -11866404.992 21159333.156 10 0 60993 81900.00000 0 10299970.616 -12536707.194 19673982.261 10 0 60993 82800.00000 0 12478460.507 -13319851.432 17806232.654 10 0 60993 83700.00000 0 14360486.994 -14167847.818 15592264.420 10 0 60993 84600.00000 0 15912444.785 -15026564.264 13075023.278 10 0 60993 85500.00000 0 17113086.241 -15838097.888 10303391.799 10 0 60994 0.00000 0 17954183.384 -16543325.999 7331241.454 10 0 60994 900.00000 0 18440652.016 -17084528.911 4216382.055 10 0 60994 1800.00000 0 18590131.757 -17407971.962 1019433.279 10 0 60994 2700.00000 0 18432041.533 -17466337.650 -2197364.455 10 0 60994 3600.00000 0 18006149.781 -17220902.574 -5371371.714 10 0 60994 4500.00000 0 17360721.227 -16643366.001 -8440780.897 10 0 60994 5400.00000 0 16550319.617 -15717251.164 -11345830.677 10 0 60994 6300.00000 0 15633360.652 -14438818.802 -14029979.134 10 0 60994 7200.00000 0 14669519.889 -12817453.326 -16441011.643 10 0 60994 8100.00000 0 13717106.428 -10875504.596 -18532061.174 10 0 60994 9000.00000 0 12830514.242 -8647591.479 -20262520.808 10 0 60994 9900.00000 0 12057859.356 -6179396.208 -21598830.659 10 0 60994 10800.00000 0 11438902.697 -3525999.989 -22515124.358 10 0 60994 11700.00000 0 11003345.899 -749829.400 -22993723.183 10 0 60994 12600.00000 0 10769571.188 2081700.741 -23025469.161 10 0 60994 13500.00000 0 10743877.445 4898750.060 -22609891.663 10 0 60994 14400.00000 0 10920243.457 7631714.650 -21755205.248 10 0 60994 15300.00000 0 11280627.154 10213878.399 -20478139.658 10 0 60994 16200.00000 0 11795787.117 12583944.393 -18803605.992 10 0 60994 17100.00000 0 12426590.893 14688342.420 -16764205.982 10 0 60994 18000.00000 0 13125754.332 16483217.988 -14399594.219 10 0 60994 18900.00000 0 13839938.297 17936021.688 -11755705.785 10 0 60994 19800.00000 0 14512114.242 19026634.372 -8883864.211 10 0 60994 20700.00000 0 15084099.021 19747982.816 -5839786.952 10 0 60994 21600.00000 0 15499152.281 20106121.790 -2682507.455 10 0 60994 22500.00000 0 15704527.177 20119780.531 526765.552 10 0 60994 23400.00000 0 15653867.209 19819393.833 3725829.614 10 0 60994 24300.00000 0 15309348.295 19245659.361 6852688.394 10 0 60994 25200.00000 0 14643475.915 18447682.372 9846746.860 10 0 60994 26100.00000 0 13640461.486 17480786.122 12649979.001 10 0 60994 27000.00000 0 12297119.608 16404079.952 15208045.940 10 0 60994 27900.00000 0 10623247.708 15277887.037 17471343.291 10 0 60994 28800.00000 0 8641471.061 14161139.401 19395957.988 10 0 60994 29700.00000 0 6386558.206 13108849.125 20944516.658 10 0 60994 30600.00000 0 3904233.650 12169761.299 22086909.576 10 0 60994 31500.00000 0 1249535.525 11384286.815 22800876.534 10 0 60994 32400.00000 0 -1515215.403 10782801.428 23072443.434 10 0 60994 33300.00000 0 -4322752.830 10384382.355 22896201.052 10 0 60994 34200.00000 0 -7103412.729 10196035.689 22275420.124 10 0 60994 35100.00000 0 -9787787.576 10212447.483 21221999.843 10 0 60994 36000.00000 0 -12309377.890 10416269.669 19756249.791 10 0 60994 36900.00000 0 -14607131.615 10778929.627 17906508.376 10 0 60994 37800.00000 0 -16627766.084 11261930.136 15708603.972 10 0 60994 38700.00000 0 -18327775.870 11818585.709 13205168.067 10 0 60994 39600.00000 0 -19675042.467 12396122.522 10444812.779 10 0 60994 40500.00000 0 -20649978.163 12938053.414 7481188.117 10 0 60994 41400.00000 0 -21246155.826 13386727.282 4371936.999 10 0 60994 42300.00000 0 -21470397.907 13685944.292 1177568.596 10 0 60994 43200.00000 0 -21342320.948 13783525.141 -2039727.484 10 0 60994 44100.00000 0 -20893355.117 13633724.155 -5217302.150 10 0 60994 45000.00000 0 -20165280.721 13199382.525 -8293277.889 10 0 60994 45900.00000 0 -19208344.490 12453728.934 -11207764.634 10 0 60994 46800.00000 0 -18079036.272 11381749.986 -13904035.538 10 0 60994 47700.00000 0 -16837621.340 9981071.229 -16329638.594 10 0 60994 48600.00000 0 -15545533.662 8262310.659 -18437421.736 10 0 60994 49500.00000 0 -14262741.124 6248889.056 -20186451.047 10 0 60994 50400.00000 0 -13045194.469 3976304.701 -21542804.208 10 0 60994 51300.00000 0 -11942467.659 1490902.622 -22480224.146 10 0 60994 52200.00000 0 -10995688.769 -1151810.299 -22980620.858 10 0 60994 53100.00000 0 -10235847.788 -3889234.043 -23034412.554 10 0 60994 54000.00000 0 -9682551.400 -6654041.963 -22640700.490 10 0 60994 54900.00000 0 -9343275.766 -9376746.853 -21807275.097 10 0 60994 55800.00000 0 -9213147.202 -11988360.336 -20550454.149 10 0 60994 56700.00000 0 -9275258.486 -14423035.726 -18894756.841 10 0 60994 57600.00000 0 -9501506.096 -16620585.498 -16872420.583 10 0 60994 58500.00000 0 -9853911.961 -18528769.765 -14522770.199 10 0 60994 59400.00000 0 -10286373.199 -20105261.883 -11891451.868 10 0 60994 60300.00000 0 -10746765.489 -21319210.714 -9029546.606 10 0 60994 61200.00000 0 -11179311.092 -22152335.821 -5992580.363 10 0 60994 62100.00000 0 -11527111.558 -22599511.293 -2839449.729 10 0 60994 63000.00000 0 -11734738.313 -22668815.087 368716.186 10 0 60994 63900.00000 0 -11750772.022 -22381042.957 3569735.837 10 0 60994 64800.00000 0 -11530183.686 -21768708.246 6701574.737 10 0 60994 65700.00000 0 -11036457.192 -20874570.124 9703541.408 10 0 60994 66600.00000 0 -10243363.716 -19749752.367 12517456.982 10 0 60994 67500.00000 0 -9136312.951 -18451531.664 15088776.250 10 0 60994 68400.00000 0 -7713223.661 -17040888.030 17367638.943 10 0 60994 69300.00000 0 -5984876.030 -15579919.632 19309831.450 10 0 60994 70200.00000 0 -3974729.668 -14129229.830 20877640.880 10 0 60994 71100.00000 0 -1718213.221 -12745395.222 22040585.483 10 0 60994 72000.00000 0 738486.650 -11478620.126 22776007.584 10 0 60994 72900.00000 0 3340088.492 -10370675.150 23069517.767 10 0 60994 73800.00000 0 6024264.309 -9453205.760 22915281.568 10 0 60994 74700.00000 0 8723989.596 -8746481.524 22316142.736 10 0 60994 75600.00000 0 11370099.174 -8258638.523 21283579.981 10 0 60994 76500.00000 0 13893943.973 -7985446.936 19837497.056 10 0 60994 77400.00000 0 16230039.217 -7910614.047 18005849.132 10 0 60994 78300.00000 0 18318594.329 -8006610.430 15824111.474 10 0 60994 79200.00000 0 20107819.199 -8235985.024 13334599.579 10 0 60994 80100.00000 0 21555910.341 -8553113.993 10585652.996 10 0 60994 81000.00000 0 22632633.379 -8906309.622 7630698.062 10 0 60994 81900.00000 0 23320435.022 -9240199.815 4527207.452 10 0 60994 82800.00000 0 23615037.340 -9498276.880 1335576.995 10 0 60994 83700.00000 0 23525489.016 -9625506.630 -1882057.801 10 0 60994 84600.00000 0 23073671.355 -9570885.947 -5063041.553 10 0 60994 85500.00000 0 22293280.172 -9289838.898 -8145430.153 10 0 60995 0.00000 0 21228327.211 -8746348.362 -11069207.716 10 0 60995 900.00000 0 19931224.585 -7914731.010 -13777465.913 10 0 60995 1800.00000 0 18460535.630 -6780979.974 -16217517.717 10 0 60995 2700.00000 0 16878486.222 -5343616.344 -18341928.306 10 0 60995 3600.00000 0 15248343.763 -3614013.369 -20109438.715 10 0 60995 4500.00000 0 13631774.471 -1616178.824 -21485765.776 10 0 60995 5400.00000 0 12086290.534 613995.668 -22444262.937 10 0 60995 6300.00000 0 10662894.345 3029987.185 -22966429.769 10 0 60995 7200.00000 0 9404018.160 5576343.681 -23042261.134 10 0 60995 8100.00000 0 8341844.638 8190764.896 -22670430.262 10 0 60995 9000.00000 0 7497077.295 10806475.541 -21858303.147 10 0 60995 9900.00000 0 6878210.809 13354792.256 -20621784.899 10 0 60995 10800.00000 0 6481330.025 15767778.105 -18985001.736 10 0 60995 11700.00000 0 6290444.288 17980874.908 -16979825.293 10 0 60995 12600.00000 0 6278341.481 19935404.752 -14645248.807 10 0 60995 13500.00000 0 6407924.414 21580837.594 -12026627.370 10 0 60995 14400.00000 0 6633972.254 22876731.639 -9174796.949 10 0 60995 15300.00000 0 6905251.980 23794266.734 -6145089.147 10 0 60995 16200.00000 0 7166890.390 24317307.951 -2996260.596 10 0 60995 17100.00000 0 7362906.339 24442956.039 210642.502 10 0 60995 18000.00000 0 7438796.337 24181562.679 3413462.897 10 0 60995 18900.00000 0 7344064.395 23556210.710 6550131.316 10 0 60995 19800.00000 0 7034589.466 22601681.684 9559863.097 10 0 60995 20700.00000 0 6474730.567 21362954.306 12384329.590 10 0 60995 21600.00000 0 5639080.693 19893296.750 14968782.054 10 0 60995 22500.00000 0 4513795.164 18252032.499 17263106.861 10 0 60995 23400.00000 0 3097437.801 16502072.850 19222792.029 10 0 60995 24300.00000 0 1401308.224 14707318.688 20809786.997 10 0 60995 25200.00000 0 -550764.948 12930039.436 21993239.450 10 0 60995 26100.00000 0 -2723158.178 11228337.990 22750095.322 10 0 60995 27000.00000 0 -5069685.722 9653806.795 23065550.513 10 0 60995 27900.00000 0 -7535281.737 8249472.375 22933345.494 10 0 60995 28800.00000 0 -10058063.774 7048113.759 22355896.699 10 0 60995 29700.00000 0 -12571693.657 6071024.848 21344261.483 10 0 60995 30600.00000 0 -15007939.111 5327272.465 19917936.361 10 0 60995 31500.00000 0 -17299330.641 4813481.283 18104491.318 10 0 60995 32400.00000 0 -19381803.711 4514154.897 15939046.082 10 0 60995 33300.00000 0 -21197216.275 4402519.770 13463597.309 10 0 60995 34200.00000 0 -22695636.315 4441856.688 10726208.825 10 0 60995 35100.00000 0 -23837303.176 4587263.543 7780079.940 10 0 60995 36000.00000 0 -24594179.813 4787774.684 4682509.645 10 0 60995 36900.00000 0 -24951029.995 4988746.560 1493777.011 10 0 60995 37800.00000 0 -24905974.526 5134407.689 -1724039.876 10 0 60995 38700.00000 0 -24470502.624 5170463.618 -4908282.513 10 0 60995 39600.00000 0 -23668937.829 5046644.989 -7996943.182 10 0 60995 40500.00000 0 -22537381.200 4719089.089 -10929883.451 10 0 60995 41400.00000 0 -21122176.888 4152452.398 -13650014.976 10 0 60995 42300.00000 0 -19477965.593 3321663.248 -16104418.467 10 0 60995 43200.00000 0 -17665408.858 2213239.216 -18245378.222 10 0 60995 44100.00000 0 -15748680.915 826112.624 -20031311.678 10 0 60995 45000.00000 0 -13792834.344 -828071.350 -21427575.826 10 0 60995 45900.00000 0 -11861150.638 -2725197.022 -22407135.157 10 0 60995 46800.00000 0 -10012586.894 -4829451.128 -22951078.849 10 0 60995 47700.00000 0 -8299425.249 -7094594.143 -23048977.991 10 0 60995 48600.00000 0 -6765222.620 -9465676.977 -22699076.929 10 0 60995 49500.00000 0 -5443145.233 -11881131.560 -21908315.993 10 0 60995 50400.00000 0 -4354756.021 -14275148.377 -20692186.066 10 0 60995 51300.00000 0 -3509303.743 -16580242.260 -19074418.555 10 0 60995 52200.00000 0 -2903541.605 -18729900.119 -17086517.266 10 0 60995 53100.00000 0 -2522081.052 -20661200.953 -14767141.636 10 0 60995 54000.00000 0 -2338264.067 -22317299.806 -12161353.357 10 0 60995 54900.00000 0 -2315515.803 -23649672.973 -9319740.986 10 0 60995 55800.00000 0 -2409119.404 -24620031.719 -6297439.413 10 0 60995 56700.00000 0 -2568337.361 -25201825.530 -3153062.978 10 0 60995 57600.00000 0 -2738789.420 -25381272.961 52427.314 10 0 60995 58500.00000 0 -2864986.393 -25157877.734 3256900.743 10 0 60995 59400.00000 0 -2892912.851 -24544409.142 6398255.451 10 0 60995 60300.00000 0 -2772549.676 -23566348.002 9415615.761 10 0 60995 61200.00000 0 -2460230.065 -22260821.594 12250505.349 10 0 60995 62100.00000 0 -1920729.524 -20675072.131 14847974.006 10 0 60995 63000.00000 0 -1129001.550 -18864522.549 17157656.691 10 0 60995 63900.00000 0 -71485.376 -16890520.026 19134744.854 10 0 60995 64800.00000 0 1253070.038 -14817850.799 20740851.843 10 0 60995 65700.00000 0 2833301.613 -12712129.183 21944756.121 10 0 60995 66600.00000 0 4645461.711 -10637168.878 22723008.271 10 0 60995 67500.00000 0 6654173.899 -8652445.253 23060390.241 10 0 60995 68400.00000 0 8813685.462 -6810753.616 22950217.852 10 0 60995 69300.00000 0 11069566.450 -5156160.440 22394480.319 10 0 60995 70200.00000 0 13360786.454 -3722332.524 21403813.440 10 0 60995 71100.00000 0 15622084.311 -2531313.531 19997305.989 10 0 60995 72000.00000 0 17786533.291 -1592798.965 18202141.986 10 0 60995 72900.00000 0 19788195.703 -903939.898 16053084.528 10 0 60995 73800.00000 0 21564756.507 -449683.772 13591810.046 10 0 60995 74700.00000 0 23060025.745 -203637.930 10866104.926 10 0 60995 75600.00000 0 24226204.527 -129419.411 7928939.397 10 0 60995 76500.00000 0 25025818.797 -182433.729 4837436.380 10 0 60995 77400.00000 0 25433238.691 -312006.824 1651755.489 10 0 60995 78300.00000 0 25435718.662 -463779.070 -1566085.544 10 0 60995 79200.00000 0 25033913.783 -582258.714 -4753428.197 10 0 60995 80100.00000 0 24241849.939 -613425.086 -7848204.289 10 0 60995 81000.00000 0 23086348.968 -507269.651 -10790155.671 10 0 60995 81900.00000 0 21605933.113 -220165.637 -13522017.432 10 0 60995 82800.00000 0 19849255.452 283035.660 -15990640.440 10 0 60995 83700.00000 0 17873123.016 1027271.862 -18148030.529 10 0 60995 84600.00000 0 15740196.554 2025974.112 -19952283.678 10 0 60995 85500.00000 0 13516464.253 3280264.714 -21368398.875 99